RH
86 85 86 85 84 84 78 76 77 76 75 75 76 76 75 73 73 74 72 70 73 77 76 74 75 75 76 77 76 75 74 77 76 75 78 76 85 73 33 19 21 21 25 29 31 33 38 46 50 50 55 62
83 80 81 80 81 82 75 76 78 74 75 77 78 77 75 73 72 73 71 70 71 73 76 73 72 75 74 74 75 73 74 78 75 78 78 77 89 62 20 21 23 20 21 20 21 23 33 46 55 53 51 59
83 79 80 79 81 79 74 77 77 73 75 77 77 76 74 72 71 72 72 71 69 70 75 73 70 73 74 73 74 75 74 76 78 80 77 82 88 52 18 20 19 20 22 20 22 21 26 37 46 45 47 60
81 79 79 79 80 77 73 74 73 74 74 73 76 74 72 70 70 72 72 72 73 73 75 73 71 71 73 75 76 76 74 77 80 78 81 86 68 31 16 17 15 17 17 18 20 20 21 24 30 35 49 63
79 78 78 76 76 74 72 72 72 75 73 70 74 72 69 68 67 70 72 74 75 73 69 68 72 72 71 75 77 77 78 78 78 82 86 68 32 13 13 12 12 13 13 15 15 17 18 19 21 27 45 60
79 78 78 76 76 74 72 73 74 77 71 68 72 70 67 66 64 66 69 71 71 70 66 64 70 74 71 74 78 78 79 78 83 88 68 32 10 10 10 8 10 10 10 11 11 12 13 15 18 20 31 49
79 78 77 76 76 75 75 76 76 75 70 66 67 67 65 63 61 61 63 64 64 65 65 61 67 75 73 74 78 80 84 87 86 69 34 11 10 9 7 8 8 7 8 8 8 9 9 11 13 15 20 39
78 77 77 76 75 75 77 78 77 73 68 65 64 64 64 61 58 57 57 60 62 62 61 59 63 71 75 77 79 75 74 75 61 33 13 11 10 7 8 8 7 8 8 7 8 7 8 8 8 11 12 26
77 75 75 75 74 74 76 77 76 73 69 66 64 63 63 60 58 57 57 61 64 62 58 55 58 67 76 77 74 63 49 44 33 16 11 10 7 8 8 7 8 8 7 7 8 7 7 8 7 9 8 16
78 74 74 74 74 74 75 75 73 72 70 67 65 64 63 61 60 59 58 58 60 59 53 50 51 60 71 70 66 57 39 28 22 14 10 9 8 9 8 8 8 7 8 8 7 8 7 7 7 8 8 13
78 75 74 74 74 73 73 74 71 69 68 66 64 64 63 60 58 58 57 54 53 54 52 49 45 50 61 61 56 49 32 20 16 12 10 9 9 8 8 8 8 8 8 8 8 8 7 7 8 8 8 12
77 75 75 74 75 73 70 69 66 63 62 62 62 63 61 56 54 55 54 51 48 48 48 45 40 41 49 49 44 35 24 18 15 12 10 9 8 9 9 8 8 9 8 8 8 8 8 8 7 7 8 9
78 76 76 76 76 73 67 64 60 57 55 56 58 60 57 52 49 51 50 46 42 41 41 39 35 36 39 37 31 24 20 18 15 12 10 9 9 9 9 9 9 8 8 9 8 8 8 8 7 8 8 8
80 79 78 76 74 70 65 62 57 55 54 52 53 54 52 48 44 45 45 40 35 34 35 33 32 34 34 31 25 20 20 19 17 14 11 9 9 9 9 9 9 9 9 8 8 9 8 8 8 7 8 9
82 81 79 77 74 69 65 63 59 56 55 53 51 50 48 44 41 40 39 35 32 31 31 30 30 32 31 28 23 20 20 19 18 15 11 9 9 9 9 9 9 9 9 9 9 8 8 8 8 8 8 9
83 81 80 78 75 72 68 65 61 59 57 54 53 51 47 43 39 36 34 31 30 30 29 28 28 29 28 27 23 20 21 20 18 15 12 10 9 9 9 9 9 9 9 9 9 9 9 8 8 8 8 9
84 82 80 79 76 74 72 69 65 61 59 57 55 53 48 43 38 34 32 30 29 29 28 27 27 27 27 27 23 21 21 20 19 17 13 10 9 9 9 9 9 9 10 10 9 9 9 9 9 8 8 10
86 83 82 81 78 76 75 73 69 63 60 59 57 53 48 43 39 35 32 30 30 29 28 27 27 27 27 27 24 22 21 21 20 18 14 11 9 9 9 10 9 10 11 10 9 10 9 10 9 9 9 9
88 85 84 82 80 79 77 75 72 67 63 60 58 55 49 44 40 37 35 32 31 31 30 29 28 27 27 27 25 23 22 21 21 19 16 12 10 9 10 10 10 10 12 10 10 10 9 10 9 10 10 9
91 88 86 85 84 82 80 78 75 71 66 62 61 58 52 46 41 39 37 35 33 33 31 30 29 28 28 28 26 23 22 22 22 20 17 13 11 11 11 11 10 11 12 11 10 10 10 10 10 10 10 10
96 93 90 89 88 86 83 81 77 73 70 66 63 61 57 48 43 41 39 37 35 34 33 31 30 29 29 28 27 24 23 23 22 21 19 15 11 12 14 14 12 12 14 13 10 10 10 10 10 11 12 11
99 97 95 93 92 90 87 85 80 76 74 72 66 62 61 53 45 42 41 38 35 33 33 32 31 31 30 29 28 26 25 24 23 22 20 17 13 12 17 20 18 16 17 14 11 12 10 10 10 11 12 12
100 99 98 96 96 94 92 90 86 82 80 77 69 64 63 58 50 45 43 40 35 34 33 33 32 32 32 30 30 28 26 25 24 24 21 18 15 12 15 22 24 22 19 14 12 13 12 10 10 11 11 10
100 100 100 99 98 96 95 93 90 88 85 81 74 67 65 61 54 51 48 44 37 34 34 33 33 33 33 32 31 30 29 28 27 26 24 20 17 13 11 18 23 21 20 20 18 18 18 14 10 10 11 11
100 100 100 99 98 97 96 94 92 91 88 84 78 72 68 62 56 51 48 45 40 36 34 33 33 33 33 33 33 32 31 30 28 28 26 21 19 16 13 17 17 14 19 23 21 22 24 22 16 11 10 12
100 100 100 98 96 96 96 94 93 92 89 85 81 76 72 67 60 53 46 43 41 37 34 34 35 36 35 35 34 34 33 31 30 28 27 25 22 19 19 22 18 12 16 18 13 15 18 19 21 18 14 14
100 100 99 98 95 94 94 93 92 91 88 85 82 78 76 73 67 60 51 47 45 41 36 35 39 40 38 37 36 35 34 33 32 30 28 27 25 24 23 25 23 15 13 14 10 10 11 11 15 20 22 19
100 100 100 99 97 95 92 91 90 90 89 87 84 81 79 77 72 66 57 51 50 48 44 40 41 43 41 39 38 37 36 35 34 33 31 30 27 26 24 24 25 19 13 13 12 10 11 11 11 15 19 18
100 100 101 99 99 96 92 90 88 88 88 87 86 83 81 78 74 70 62 53 51 51 53 48 44 46 46 42 39 38 37 37 37 35 34 33 30 27 24 21 21 23 18 13 14 13 12 16 16 15 14 14
101 99 100 100 100 97 93 91 88 87 87 86 85 83 82 80 75 72 67 60 55 54 56 53 47 47 47 43 42 41 39 38 38 38 37 36 33 30 28 23 20 24 24 17 15 15 15 19 19 16 15 14
97 100 100 100 99 97 94 92 89 87 86 85 85 83 82 80 76 72 68 64 61 60 60 55 49 50 50 46 45 44 42 40 40 40 40 39 37 34 32 28 21 22 27 24 20 17 16 19 19 18 17 15
Wind_Speed
26 28 28 26 26 25 23 23 22 20 18 18 17 17 17 17 17 17 16 15 14 13 12 11 10 11 11 11 11 11 11 11 11 10 11 10 10 9 10 12 12 13 13 13 13 13 13 14 15 16 19 21
25 26 28 26 26 25 22 22 22 20 19 19 19 18 18 18 18 18 17 16 14 14 13 12 11 11 11 11 11 10 10 10 10 10 10 10 10 9 9 11 11 11 12 12 12 12 13 14 15 16 17 20
25 26 27 26 26 24 22 23 22 21 21 21 20 20 20 20 20 18 17 16 15 14 14 13 12 11 11 11 11 10 10 10 9 9 9 9 9 8 8 10 10 11 11 11 12 12 13 13 14 14 15 18
28 27 28 28 27 25 24 25 24 23 22 21 22 22 22 22 21 20 18 18 17 17 17 16 14 12 11 11 11 10 10 10 9 9 9 9 8 7 6 8 9 10 10 11 11 12 12 12 12 13 15 18
30 29 28 28 28 27 26 26 25 24 23 22 23 23 22 22 22 22 21 21 20 19 19 17 15 13 12 11 11 10 10 10 9 9 9 7 5 4 4 5 7 9 10 10 11 11 12 12 12 13 15 16
31 30 29 29 29 28 27 27 27 26 24 24 25 23 23 22 23 23 23 22 21 19 18 17 16 15 13 12 11 10 10 10 9 8 7 5 4 3 4 4 5 7 8 9 9 10 11 11 12 13 14 14
32 31 30 30 30 29 28 28 28 27 26 25 25 24 23 23 23 22 22 21 19 18 18 17 17 17 14 13 13 12 11 11 10 8 6 4 4 3 4 4 5 6 7 8 8 9 9 10 12 12 13 14
32 32 32 32 32 32 30 30 29 28 27 26 25 24 23 23 22 22 21 20 18 17 17 18 18 18 17 17 16 13 12 10 8 6 4 4 4 4 4 5 5 6 7 8 8 8 9 9 11 12 13 14
34 33 33 32 32 33 32 31 30 29 28 27 26 25 24 23 23 22 21 20 19 18 18 19 19 19 19 19 17 13 10 8 6 4 4 4 4 5 5 5 6 7 7 7 8 8 8 9 10 11 12 13
36 35 34 34 33 33 33 33 32 30 29 28 27 26 26 25 24 23 22 21 21 20 18 19 20 20 21 20 17 14 10 9 7 5 5 5 5 5 5 5 6 6 7 7 7 8 8 9 10 11 12 13
38 38 37 36 36 35 35 34 33 31 30 29 28 28 27 26 25 24 23 22 21 20 19 19 20 21 21 20 17 15 12 10 8 7 6 6 6 6 5 5 5 6 6 7 7 7 8 9 9 11 12 13
40 40 39 38 37 37 36 35 33 32 31 30 29 29 28 26 25 25 24 23 23 22 21 20 20 21 21 20 18 16 13 10 9 8 7 7 6 6 6 5 5 5 6 6 7 7 8 8 9 10 11 13
42 42 40 39 39 38 37 36 35 33 32 31 30 30 29 27 26 26 26 25 24 23 22 21 20 21 21 20 18 16 13 11 10 9 9 8 8 7 6 6 5 6 5 6 6 7 7 8 9 10 11 12
43 42 42 41 40 39 37 37 36 35 33 31 31 30 29 28 27 27 27 26 25 23 23 21 21 21 21 20 18 17 15 13 11 10 10 9 9 8 7 7 6 6 6 6 6 7 7 8 9 9 11 12
44 43 43 43 41 40 38 38 38 36 35 33 32 31 30 29 28 28 27 26 25 24 23 22 22 22 21 20 19 18 16 14 12 11 11 10 10 9 9 8 7 7 7 6 7 7 7 8 8 9 10 12
45 45 45 44 43 41 39 39 39 38 37 35 33 32 31 30 29 28 28 26 25 24 23 23 23 23 22 21 21 19 17 15 13 12 12 11 11 10 10 10 9 9 8 7 7 7 7 8 8 9 10 11
47 48 47 46 45 42 41 41 41 40 38 37 35 33 32 31 30 29 28 26 25 24 23 22 23 22 22 22 21 20 18 16 14 13 13 13 12 12 12 11 11 10 9 9 9 8 8 8 9 9 10 11
47 48 48 47 46 44 43 42 42 41 39 38 36 34 33 32 31 29 29 27 26 24 23 23 22 22 23 23 22 21 19 17 16 15 15 14 14 14 13 12 12 11 10 10 10 10 9 9 9 9 10 11
48 49 49 48 47 45 45 44 43 42 40 39 37 35 35 34 32 30 29 28 27 26 25 24 23 23 23 23 22 22 20 19 17 17 16 15 15 15 14 14 14 12 12 12 12 11 11 10 11 10 10 11
47 48 49 48 48 47 46 45 44 43 42 41 39 38 37 36 33 32 31 30 28 27 26 26 25 24 24 23 23 23 22 20 19 18 17 16 16 16 16 15 15 14 13 13 13 13 12 12 12 11 11 12
44 45 47 48 47 47 47 46 46 45 44 43 41 40 39 37 35 34 33 32 31 30 28 27 26 26 24 23 23 23 22 21 20 19 18 18 17 16 16 16 16 15 14 14 15 15 14 14 13 12 12 12
43 43 44 46 46 47 47 47 47 46 46 45 44 42 41 39 38 36 35 35 34 32 30 29 28 27 25 24 24 24 23 23 22 21 19 19 18 18 16 14 15 15 14 15 16 15 15 16 14 14 14 14
42 40 39 41 42 42 43 44 45 46 46 46 45 44 41 40 39 38 37 36 35 34 33 31 30 29 26 25 25 25 25 25 24 22 21 20 20 20 18 14 13 14 14 15 16 15 15 16 15 15 16 16
40 41 36 34 35 36 39 41 42 42 44 45 46 45 43 43 42 40 39 37 37 37 35 34 33 31 28 27 27 27 27 27 26 24 23 22 22 21 21 18 16 15 14 12 12 12 13 14 16 17 17 17
39 40 35 31 32 33 36 39 38 36 39 42 44 45 44 44 44 43 42 40 39 39 38 36 35 33 30 29 29 29 29 28 28 26 25 24 23 22 21 19 19 19 14 9 8 9 10 12 15 17 17 17
38 38 36 36 35 35 35 38 37 37 41 44 44 46 45 45 45 45 44 42 41 41 40 39 37 35 33 32 32 31 31 30 29 28 27 26 23 22 20 16 18 22 15 10 10 8 7 9 12 15 17 17
39 39 39 39 38 38 38 38 40 42 44 45 46 46 45 44 45 45 44 44 43 42 42 41 39 37 36 35 34 34 33 33 31 30 29 28 24 20 18 13 15 23 19 12 10 8 6 6 7 9 13 17
37 38 38 38 36 36 35 32 35 39 39 39 41 42 41 42 44 45 45 46 45 44 43 43 41 39 39 38 37 36 36 35 33 32 30 30 27 20 16 14 15 23 24 17 11 7 6 5 5 6 8 13
33 31 31 33 30 27 26 24 24 29 30 30 34 37 39 41 43 45 46 47 47 46 45 45 44 42 42 41 40 39 38 36 35 34 33 32 31 27 20 16 15 20 25 25 19 12 6 4 4 5 5 7
30 29 27 28 27 24 23 22 22 26 29 30 34 38 41 43 45 46 48 48 48 47 46 47 46 44 44 44 42 41 40 38 37 36 36 35 34 33 28 20 14 15 23 28 28 23 14 8 5 3 4 5
25 28 26 25 28 29 27 24 24 28 32 33 36 38 40 43 45 46 47 48 48 48 48 48 46 45 46 45 44 42 41 40 40 38 38 38 36 36 34 27 17 15 19 22 25 29 26 19 15 8 5 6
Wind_Direction
164 163 161 160 155 154 153 155 156 155 155 155 155 155 154 153 153 151 151 154 152 149 147 145 144 142 140 137 134 130 131 127 123 122 121 120 114 118 131 135 135 139 143 145 146 143 140 136 134 134 128 120
170 167 164 164 161 159 156 159 160 158 162 161 158 159 159 159 159 156 154 156 155 155 152 149 149 146 144 143 139 136 134 131 128 124 125 122 115 125 137 137 138 139 141 142 143 142 142 139 137 135 130 123
171 171 169 165 161 161 158 161 164 165 168 164 162 165 165 166 163 158 158 160 158 157 156 153 153 150 148 147 144 142 140 136 132 127 127 122 119 133 141 140 142 141 142 143 144 144 144 144 142 137 133 127
171 173 174 168 164 163 162 166 170 172 171 166 168 172 171 171 166 161 163 165 161 160 160 157 153 152 153 151 149 147 144 141 137 134 129 123 132 149 147 143 145 144 144 145 145 146 146 147 147 141 137 132
174 175 176 172 171 170 169 173 175 175 173 171 175 179 178 176 171 169 171 171 171 172 170 164 155 153 158 156 153 150 148 149 145 140 136 138 154 161 150 144 145 146 146 147 147 147 146 146 147 145 141 136
174 178 178 174 173 173 174 177 177 177 177 178 181 184 184 182 179 178 179 181 183 182 176 169 160 157 161 160 157 153 152 152 150 152 165 187 192 172 157 148 144 148 148 148 149 148 147 147 148 148 147 143
174 176 178 176 174 173 176 179 181 182 182 184 186 188 188 186 186 186 187 190 190 185 180 176 167 162 162 163 162 156 151 150 158 172 194 208 198 184 169 155 151 153 152 151 151 149 148 150 150 149 150 147
177 177 178 177 177 178 179 181 184 187 187 189 191 192 192 191 191 192 193 194 193 188 183 180 176 171 169 171 173 168 160 160 174 187 199 201 190 186 173 164 160 155 157 156 154 153 152 154 153 150 153 152
181 181 182 181 183 184 183 185 186 189 191 191 193 195 195 195 194 195 196 195 194 191 187 186 184 180 178 182 186 186 182 184 196 200 199 199 188 185 178 170 166 160 161 160 158 158 157 157 154 153 154 156
186 186 186 187 188 188 188 189 189 191 193 194 196 197 197 196 196 197 198 198 198 197 194 192 191 189 188 191 195 198 202 205 211 214 211 204 192 191 186 176 173 166 164 164 163 163 161 158 155 155 154 156
190 191 192 192 192 191 190 191 192 193 195 197 198 199 199 198 198 199 200 202 202 202 199 197 197 196 195 197 201 203 209 212 217 220 215 210 203 198 192 184 179 172 167 165 164 165 164 161 158 157 156 158
194 194 195 194 192 193 193 193 195 197 198 200 201 201 201 201 202 203 204 205 205 206 205 204 204 201 200 202 205 207 210 213 218 222 218 213 208 203 199 194 186 180 174 167 165 166 165 162 162 161 159 160
197 195 195 194 194 195 196 197 198 201 201 201 202 203 204 204 205 206 206 207 208 208 209 210 209 205 204 206 208 209 210 213 217 220 219 214 208 207 204 199 196 189 182 176 171 169 168 166 164 163 162 163
197 195 195 196 197 199 199 200 202 203 203 202 204 205 206 207 208 208 208 208 209 209 210 212 210 208 208 209 210 209 211 213 216 219 218 215 210 209 207 206 205 198 193 189 182 177 173 171 169 166 166 166
198 198 199 200 201 203 203 204 205 204 203 204 206 209 209 208 209 210 209 209 209 208 210 211 210 210 210 211 211 210 213 214 215 217 215 214 211 210 209 211 209 203 202 200 195 190 182 178 176 174 172 172
201 201 202 204 204 205 207 208 207 206 206 206 207 211 211 209 210 210 210 210 209 208 209 210 210 212 212 212 212 212 214 214 215 216 213 210 209 209 210 212 212 207 204 207 206 201 194 189 184 182 179 179
204 205 205 206 206 208 209 209 208 207 208 209 210 212 212 211 211 210 210 210 210 210 210 211 212 213 213 214 213 213 214 213 214 214 213 210 206 208 209 211 213 210 208 212 212 211 207 200 197 192 188 187
207 207 207 208 209 210 210 209 209 209 210 211 212 214 213 212 211 211 210 210 210 210 211 212 213 214 214 215 214 214 214 212 212 213 214 211 208 209 208 210 213 210 211 215 216 216 215 211 209 204 197 197
209 208 208 209 209 210 211 211 211 211 212 213 214 215 214 213 212 212 212 211 210 210 212 212 213 213 214 216 214 214 213 212 212 213 214 212 210 209 207 210 212 210 212 217 219 219 218 218 218 214 210 208
210 210 210 209 209 210 211 212 213 213 215 215 216 216 216 214 212 213 213 213 211 211 212 212 213 214 215 216 214 213 213 213 212 212 213 212 211 209 208 210 210 210 212 215 219 220 220 222 221 219 219 217
211 211 211 210 209 211 211 212 213 215 216 215 216 217 217 215 214 214 214 214 213 213 213 213 214 214 215 215 214 215 214 213 213 213 212 212 211 208 207 209 209 208 210 214 218 221 222 223 223 223 225 223
212 212 212 212 211 212 212 212 213 215 216 216 216 217 218 217 216 215 215 215 213 213 214 214 214 216 216 214 214 216 215 214 215 215 213 213 213 210 206 206 208 208 208 213 216 219 223 224 224 225 226 227
214 213 212 213 213 213 212 212 213 214 215 215 216 218 219 220 218 217 218 217 215 215 215 215 215 216 215 214 214 215 215 215 216 215 214 214 216 213 208 204 204 206 208 213 216 218 223 225 225 226 229 229
213 213 212 212 213 214 215 215 215 215 215 215 217 218 219 219 218 219 220 219 218 216 216 216 216 217 215 214 215 215 216 217 218 217 215 214 216 214 211 208 206 206 204 206 213 219 224 228 228 228 230 230
211 211 210 211 212 214 217 218 217 217 217 217 219 220 219 219 218 218 219 219 218 218 217 217 217 217 216 215 216 218 220 219 219 218 215 213 214 214 211 209 211 210 200 193 205 215 223 229 235 235 233 231
211 210 209 211 213 215 218 220 219 219 221 222 222 223 222 222 221 220 220 219 219 219 217 217 217 218 217 216 217 219 219 220 219 218 216 214 212 213 212 208 216 213 198 195 209 210 217 220 226 234 235 234
212 213 213 213 214 216 219 222 224 224 225 225 224 223 223 223 223 222 222 222 222 221 219 219 219 219 219 219 218 218 218 218 219 218 218 217 212 209 207 206 218 216 205 203 210 210 223 219 211 217 221 226
215 215 216 217 218 219 218 220 223 223 224 225 223 223 222 223 224 223 221 222 223 223 222 223 223 221 221 221 220 219 219 218 219 219 219 219 215 206 200 200 214 220 214 207 201 205 221 220 226 223 201 205
216 216 217 217 217 218 217 218 217 216 219 223 223 225 225 226 227 227 224 223 224 224 224 225 224 224 223 223 222 220 220 221 222 222 221 221 218 212 206 201 205 216 217 212 209 215 225 208 229 239 201 184
218 218 218 215 212 212 212 213 212 212 214 218 222 225 228 230 230 229 227 226 226 226 225 225 223 223 224 224 224 222 221 223 224 223 224 223 221 218 216 212 200 203 214 217 216 219 226 228 243 252 196 194
224 224 223 219 215 213 213 213 214 217 219 220 222 224 227 230 231 229 229 228 227 227 227 225 222 223 225 225 226 225 223 222 224 226 227 227 224 222 221 218 209 201 207 214 219 222 224 227 237 246 224 228